EW8768 Weather Reports


Display with metric or nautical units.
time (UTC)temp
F
wind
direction
speed
MPH
gust
MPH
rain 1hr
in
rain 24hr
in
rain mn
in
humidity
%
barometer
mb
20210928063111 67 209 0.0 0.0 0.00 0.00 0.00 1 1013.9
20210928061555 67 209 0.0 0.0 0.00 0.00 0.00 1 1014.0
20210928060052 67 209 0.0 0.0 0.00 0.00 0.00 1 1014.1
20210928054615 68 209 0.0 0.0 0.00 0.00 0.00 1 1014.3
20210928053024 68 209 0.0 0.0 0.00 0.00 0.00 1 1014.2
20210928051516 68 209 0.0 0.0 0.00 0.00 0.00 1 1014.4
20210928050027 69 209 0.0 0.0 0.00 0.00 0.00 1 1014.5
20210928044519 69 209 0.0 0.0 0.00 0.00 0.00 1 1014.6
20210928043002 70 209 0.0 0.0 0.00 0.00 0.00 1 1014.6
20210928041720 71 209 0.0 0.0 0.00 0.00 0.00 1 1014.8
20210928040152 71 209 0.0 0.0 0.00 0.00 0.00 1 1014.9
20210928034629 72 209 0.0 0.0 0.00 0.00 0.00 1 1014.8
20210928033112 73 209 0.0 0.0 0.00 0.00 0.00 1 1014.9
20210928031713 74 209 0.0 0.0 0.00 0.00 0.00 1 1014.8
20210928030057 75 209 0.0 1.0 0.00 0.00 0.00 1 1014.8
20210928024605 76 208 0.0 2.0 0.00 0.00 0.00 1 1014.7
20210928023042 77 188 0.0 4.0 0.00 0.00 0.00 1 1014.6
20210928021531 77 180 1.0 5.0 0.00 0.00 0.00 1 1014.6
20210928020037 76 190 1.0 3.0 0.00 0.00 0.00 1 1014.5
20210928014518 76 213 0.0 3.0 0.00 0.00 0.00 1 1014.3
20210928013010 75 114 0.0 3.0 0.00 0.00 0.00 1 1014.2
20210928011507 72 211 0.0 0.0 0.00 0.00 0.00 1 1014.1
20210928010001 72 211 0.0 0.0 0.00 0.00 0.00 1 1014.0
20210928004722 72 211 0.0 0.0 0.00 0.00 0.00 1 1013.9
20210928003119 72 211 0.0 0.0 0.00 0.00 0.00 1 1013.7
20210928001603 73 211 0.0 0.0 0.00 0.00 0.00 1 1013.5
20210928000100 75 211 0.0 0.0 0.00 0.00 0.00 1 1013.4
20210927234601 76 211 0.0 0.0 0.00 0.00 0.00 4 1013.4
20210927233107 78 211 0.0 0.0 0.00 0.00 0.00 15 1013.2
20210927231625 80 211 0.0 0.0 0.00 0.00 0.00 29 1013.3
20210927230039 82 211 0.0 0.0 0.00 0.00 0.00 36 1013.2
20210927224536 83 211 0.0 0.0 0.00 0.00 0.00 45 1013.3
20210927223030 86 211 0.0 1.0 0.00 0.00 0.00 47 1013.3
20210927221545 88 211 0.0 2.0 0.00 0.00 0.00 45 1013.4
20210927220014 89 211 0.0 1.0 0.00 0.00 0.00 45 1013.4
20210927214517 90 297 0.0 1.0 0.00 0.00 0.00 43 1013.3
20210927213153 89 297 0.0 2.0 0.00 0.00 0.00 43 1013.3
20210927211926 89 307 0.0 2.0 0.00 0.00 0.00 45 1013.4
20210927210212 88 240 0.0 2.0 0.00 0.00 0.00 45 1013.4
20210927204640 87 332 1.0 4.0 0.00 0.00 0.00 44 1013.5
20210927203103 87 264 0.0 2.0 0.00 0.00 0.00 45 1013.6
20210927201539 89 192 0.0 2.0 0.00 0.00 0.00 43 1013.7
20210927200118 88 289 0.0 3.0 0.00 0.00 0.00 44 1013.8
20210927194553 89 219 0.0 2.0 0.00 0.00 0.00 41 1014.0
20210927193111 87 271 0.0 4.0 0.00 0.00 0.00 44 1014.2
20210927191523 88 238 0.0 4.0 0.00 0.00 0.00 44 1014.3
20210927190018 88 349 1.0 5.0 0.00 0.00 0.00 42 1014.6
20210927184534 89 172 0.0 3.0 0.00 0.00 0.00 40 1014.8
20210927183009 88 253 0.0 3.0 0.00 0.00 0.00 41 1015.0
20210927181502 86 326 0.0 5.0 0.00 0.00 0.00 41 1015.2
20210927180108 87 336 0.0 6.0 0.00 0.00 0.00 41 1015.4
20210927174804 87 188 0.0 6.0 0.00 0.00 0.00 39 1015.7
20210927173117 88 315 0.0 4.0 0.00 0.00 0.00 38 1015.9
20210927171700 87 209 0.0 4.0 0.00 0.00 0.00 36 1016.1
20210927170153 85 199 0.0 2.0 0.00 0.00 0.00 34 1016.3
20210927164554 84 305 0.0 2.0 0.00 0.00 0.00 33 1016.4
20210927163113 83 318 0.0 2.0 0.00 0.00 0.00 31 1016.5
20210927161613 84 89 0.0 3.0 0.00 0.00 0.00 30 1016.6
20210927160039 84 87 1.0 4.0 0.00 0.00 0.00 31 1016.6
20210927154545 84 201 0.0 2.0 0.00 0.00 0.00 28 1016.7
20210927153026 83 340 0.0 3.0 0.00 0.00 0.00 23 1016.6
20210927151511 83 97 2.0 3.0 0.00 0.00 0.00 25 1016.7
20210927150005 83 116 0.0 2.0 0.00 0.00 0.00 19 1016.7
20210927144626 81 357 0.0 3.0 0.00 0.00 0.00 18 1016.8
20210927143223 81 94 0.0 3.0 0.00 0.00 0.00 15 1016.8
20210927141709 80 98 0.0 4.0 0.00 0.00 0.00 6 1016.8
20210927140127 80 115 0.0 2.0 0.00 0.00 0.00 1 1016.7
20210927134614 78 98 0.0 2.0 0.00 0.00 0.00 1 1016.7
20210927133120 76 111 0.0 2.0 0.00 0.00 0.00 1 1016.7
20210927131547 75 139 0.0 0.0 0.00 0.00 0.00 1 1016.7
20210927130117 72 97 0.0 1.0 0.00 0.00 0.00 1 1016.7
20210927124538 69 97 0.0 1.0 0.00 0.00 0.00 1 1016.6
20210927123053 66 97 0.0 0.0 0.00 0.00 0.00 1 1016.5
20210927121518 64 97 0.0 0.0 0.00 0.00 0.00 1 1016.4
20210927120038 63 97 0.0 0.0 0.00 0.00 0.00 1 1016.3
20210927114507 62 97 0.0 0.0 0.00 0.00 0.00 1 1016.3
20210927113003 62 97 0.0 0.0 0.00 0.00 0.00 1 1016.2
20210927111717 63 96 0.0 0.0 0.00 0.00 0.00 1 1016.0
20210927110148 63 97 0.0 0.0 0.00 0.00 0.00 1 1016.0
20210927104618 63 97 0.0 0.0 0.00 0.00 0.00 1 1015.7
20210927103116 63 97 0.0 0.0 0.00 0.00 0.00 1 1015.7
20210927101553 64 97 0.0 0.0 0.00 0.00 0.00 1 1015.5
20210927100053 64 96 0.0 0.0 0.00 0.00 0.00 1 1015.3
20210927094617 64 97 0.0 0.0 0.00 0.00 0.00 1 1015.2
20210927093034 64 97 0.0 0.0 0.00 0.00 0.00 1 1015.2
20210927091628 64 97 0.0 0.0 0.00 0.00 0.00 1 1015.2
20210927090021 65 97 0.0 0.0 0.00 0.00 0.00 1 1015.1
20210927084514 65 97 0.0 0.0 0.00 0.00 0.00 1 1015.1
20210927083012 65 97 0.0 0.0 0.00 0.00 0.00 1 1015.1
20210927081545 65 97 0.0 0.0 0.00 0.00 0.00 1 1015.0
20210927080001 65 97 0.0 0.0 0.00 0.00 0.00 1 1015.1
20210927074721 65 97 0.0 0.0 0.00 0.00 0.00 1 1015.2
20210927073234 65 97 0.0 0.0 0.00 0.00 0.00 1 1015.3
20210927071627 65 97 0.0 0.0 0.00 0.00 0.00 1 1015.3
20210927070244 65 97 0.0 0.0 0.00 0.00 0.00 1 1015.4
20210927064702 66 97 0.0 0.0 0.00 0.00 0.00 1 1015.4